Starlink 11699

operational
NORAD ID: 63762 Int'l Des: 2025-089 Owner: SPXS Country: US Constellation: starlink
LEOCIRCULAR

Über Starlink 11699

Beschreibung wird geladen...

Live-Position

3D-Globus wird geladen...

Nächste Überflüge

Höhenverlauf

Altitude vs Time

uPlot chart will show altitude changes over time

Zweizeiliger Elementsatz

1 63762U 25089M 25259.48780273 .00243322 00000-0 18469-2 0 9996
2 63762 42.9994 262.6709 0001561 274.9707 85.0983 15.70812681 22730
Epoch: 16. Sept. 2025 • Age: 40 hours

Aktueller Status

Höhe 358.2 km
Geschwindigkeit 7.70 km/s
Subsatellitenpunkt 42.64°N, 60.62°W
Startdatum 29. Apr. 2025
Alter 0.3 years
Typ internet

Technische Details

Klassifizierung Payload
Masse 960.00 kg
Trockenmasse 910.00 kg
Gesamtmasse 960.00 kg
Länge 0.30 m
Durchmesser 4.10 m
Spannweite 29.00 m
Form Box + pan
Hersteller SPXS
Bus-Typ Starlink V2MD
Phasenstatus In Orbit
Besitzer/Staat SPXS/US

Große Konstellationen

Loading constellations...